IRIDIUM 7 1 24793U 97020B 22145.90105750 .00000412 00000-0 13924-3 0 9993 2 24793 86.3936 284.9626 0002102 96.1235 264.0200 14.34494677311514 IRIDIUM 5 1 24795U 97020D 22145.71304967 .00003914 00000-0 42162-3 0 9991 2 24795 86.4001 232.2348 0138116 142.6826 218.4091 14.81308454319333 IRIDIUM 4 1 24796U 97020E 22145.89620061 .00000438 00000-0 14571-3 0 9998 2 24796 86.3934 282.5831 0001964 89.7078 270.4343 14.35399697311982 IRIDIUM 914 1 24836U 97030A 22145.88656213 .00000479 00000-0 14848-3 0 9993 2 24836 86.3905 294.4141 0001145 33.2955 326.8316 14.39114087446213 IRIDIUM 16 1 24841U 97030F 22145.53319824 .00000475 00000-0 15353-3 0 9993 2 24841 86.4003 314.5943 0004132 115.9200 244.2423 14.37068401306272 IRIDIUM 911 1 24842U 97030G 22145.99658423 .00000590 00000-0 16190-3 0 9993 2 24842 86.4430 314.0903 0013150 212.2349 147.8051 14.45392489313440 IRIDIUM 17 1 24870U 97034B 22145.65011058 .00000461 00000-0 15153-3 0 9993 2 24870 86.3958 344.3292 0003896 81.2048 278.9589 14.36125036302978 IRIDIUM 920 1 24871U 97034C 22145.86534571 .00000439 00000-0 13335-3 0 9992 2 24871 86.3952 326.1023 0012343 156.6796 203.4965 14.39841249305582 IRIDIUM 921 1 24873U 97034E 22145.85197843 .00006953 00000-0 36554-3 0 9995 2 24873 86.3888 291.5400 0006973 178.9887 181.1368 15.15485175360471 IRIDIUM 26 1 24903U 97043A 22145.74052280 .00000351 00000-0 11512-3 0 9995 2 24903 86.4009 219.5521 0002239 98.2108 261.9343 14.35574272296214 IRIDIUM 22 1 24907U 97043E 22145.71480670 .00000361 00000-0 12103-3 0 9992 2 24907 86.4011 222.2146 0002187 91.7740 268.3706 14.34504789296362 DUMMY MASS 1 1 24925U 97048A 22145.86842631 .00000485 00000-0 53075-4 0 9993 2 24925 86.3320 291.6586 0008574 132.3496 227.8456 14.85373756339058 DUMMY MASS 2 1 24926U 97048B 22145.91959874 .00000469 00000-0 51568-4 0 9995 2 24926 86.3319 293.0499 0009059 141.7959 218.3908 14.85139881339105 IRIDIUM 29 1 24944U 97051A 22145.81573726 .00000407 00000-0 13632-3 0 9997 2 24944 86.3974 252.3294 0001991 88.6600 271.4824 14.34937223292826 IRIDIUM 33 1 24946U 97051C 22145.82952240 .00000310 00000-0 10428-3 0 9995 2 24946 86.3888 251.6960 0009853 119.4702 240.7477 14.33827879292440 IRIDIUM 28 1 24948U 97051E 22145.82070938 .00000371 00000-0 12131-3 0 9992 2 24948 86.3982 250.4861 0002428 100.7020 259.4451 14.35874779293297 IRIDIUM 36 1 24967U 97056C 22145.39839476 .00000450 00000-0 14843-3 0 9990 2 24967 86.3945 282.3443 0002286 87.7627 272.3832 14.35954008291598 IRIDIUM 39 1 25042U 97069D 22145.90725101 .00000693 00000-0 18600-3 0 9999 2 25042 86.3899 329.4767 0021041 75.4189 284.9346 14.46647403287178 IRIDIUM 38 1 25043U 97069E 22145.64646834 .00000434 00000-0 14162-3 0 9998 2 25043 86.3954 342.9408 0002971 116.9807 243.1694 14.36384909285317 IRIDIUM 42 1 25077U 97077A 22145.65948355 .00000396 00000-0 13295-3 0 9991 2 25077 86.3965 347.7615 0002337 102.4165 257.7292 14.34761315280747 IRIDIUM 44 1 25078U 97077B 22146.06657055 .00000446 00000-0 13946-3 0 9991 2 25078 86.3941 332.5038 0004097 94.4328 265.7338 14.38495745282915 IRIDIUM 45 1 25104U 97082A 22145.67931905 .00006459 00000-0 48039-3 0 9993 2 25104 86.3845 210.3768 0207282 61.4077 300.7831 14.87113034284403 IRIDIUM 24 1 25105U 97082B 22146.16488674 .00000373 00000-0 11153-3 0 9995 2 25105 86.3955 193.3705 0012423 155.8659 204.3125 14.40225930282469 IRIDIUM 51 1 25262U 98018A 22145.78326884 .00005874 00000-0 39159-3 0 9997 2 25262 86.4016 221.8804 0195606 33.0273 328.2993 14.92431729278492 IRIDIUM 57 1 25273U 98019B 22145.82818792 .00000351 00000-0 11757-3 0 9998 2 25273 86.3976 253.2811 0002145 93.2734 266.8707 14.34537167264393 IRIDIUM 63 1 25286U 98021B 22145.62297348 .00000332 00000-0 10980-3 0 9997 2 25286 86.4028 190.3842 0002047 88.8767 271.2664 14.34995576263368 IRIDIUM 69 1 25319U 98026A 22145.69714217 .00000439 00000-0 13570-3 0 9991 2 25319 86.4036 206.8385 0004487 99.2161 260.9546 14.39055792262122 IRIDIUM 71 1 25320U 98026B 22145.67046056 .00000402 00000-0 12297-3 0 9995 2 25320 86.4018 201.8970 0003312 130.6189 229.5298 14.39433440262614 IRIDIUM 73 1 25344U 98032C 22145.59457969 .00000513 00000-0 12890-3 0 9990 2 25344 86.4428 160.6211 0002477 101.9081 258.2401 14.49440630268439 IRIDIUM 82 1 25467U 98051A 22145.88173728 .00007307 00000-0 51073-3 0 9991 2 25467 86.3967 275.9051 0172703 70.2592 291.7171 14.93731777255547 IRIDIUM 2 1 25527U 98066A 22145.77749519 .00009479 00000-0 40643-3 0 9992 2 25527 85.5308 44.3419 0005367 291.8558 68.2114 15.22590911292051